Le nostre stazioni meteo in Italia

Pubblicità
Il mio iltempo24.it
Lentran, Gran Bretagna (99125): Temperatura & dewpoint: 16.06.2017 21:00:00 - 22.06.2017 21:00:00 (BST)Lentran, Gran Bretagna (99125): Temperatura 5cm: 16.06.2017 21:00:00 - 22.06.2017 21:00:00 (BST)Lentran, Gran Bretagna (99125): velocità del vento: 16.06.2017 21:00:00 - 22.06.2017 21:00:00 (BST)Lentran, Gran Bretagna (99125): direzione del vento: 16.06.2017 21:00:00 - 22.06.2017 21:00:00 (BST)Lentran, Gran Bretagna (99125): visibility: 16.06.2017 21:00:00 - 22.06.2017 21:00:00 (BST)Lentran, Gran Bretagna (99125): precipitazioni: 16.06.2017 21:00:00 - 22.06.2017 21:00:00 (BST)
Data & Tempo tt [°C] td [°C] tt 5cm [°C] ff [km/h] ff [kn] dd vv [km] rr [mm]
22.06.2017 21:00:00 11,8 10,6 - - - - - 1,4
22.06.2017 20:00:00 13,8 9,4 - - - - - 0,0
22.06.2017 19:00:00 14,5 10,3 - - - - - 0,0
22.06.2017 18:00:00 15,7 9,8 - - - - - 0,0
22.06.2017 17:00:00 16,0 10,1 - - - - - 0,0
22.06.2017 16:00:00 16,0 9,9 - - - - - 0,0
22.06.2017 15:00:00 16,7 9,9 - - - - - 0,0
22.06.2017 14:00:00 16,5 10,2 - - - - - 0,0
22.06.2017 13:00:00 15,4 10,0 - - - - - 0,0
22.06.2017 12:00:00 15,2 9,7 - - - - - 0,0
22.06.2017 11:00:00 14,2 9,4 - - - - - 0,0
22.06.2017 10:00:00 15,2 10,5 - 72 39 N 2,8 0,0
22.06.2017 09:00:00 14,7 10,8 - - - - - 0,0
22.06.2017 08:00:00 14,2 11,7 - - - - - 0,0
22.06.2017 07:00:00 12,7 10,6 - - - - - 0,0
22.06.2017 06:00:00 13,0 12,4 - - - - - 0,0
22.06.2017 05:00:00 13,2 12,0 - - - - - 0,0
22.06.2017 04:00:00 13,2 12,0 - - - - - 0,0
22.06.2017 03:00:00 13,2 12,0 - - - - - 0,0
22.06.2017 02:00:00 13,8 12,5 - - - - - 0,0
22.06.2017 01:00:00 14,3 12,2 - - - - - 0,0
22.06.2017 00:00:00 14,3 13,3 - - - - - 0,0
21.06.2017 23:00:00 15,0 13,3 - - - - - 0,0
21.06.2017 22:00:00 16,2 14,0 - - - - - 0,0
21.06.2017 21:00:00 17,3 15,0 - - - - - 0,0
21.06.2017 20:00:00 18,3 16,2 - - - - - 0,0
21.06.2017 19:00:00 18,6 16,2 - - - - - 0,0
21.06.2017 18:00:00 17,9 17,0 - - - - - 2,0
21.06.2017 17:00:00 18,3 15,0 - - - - - 0,4
21.06.2017 16:00:00 21,4 14,7 - - - - - 0,0
21.06.2017 15:00:00 22,4 15,2 - - - - - 0,0
21.06.2017 14:00:00 22,0 16,9 - - - - - 0,0
21.06.2017 13:00:00 16,8 13,2 - - - - - 0,0
21.06.2017 12:00:00 17,0 13,5 - - - - - 0,0
21.06.2017 11:00:00 16,5 12,4 - - - - - 0,0
21.06.2017 10:00:00 13,9 11,7 13,9 22 12 N 23 0,0
21.06.2017 09:00:00 11,7 10,4 - - - - - 0,0
21.06.2017 08:00:00 11,3 10,2 - - - - - 0,0
21.06.2017 07:00:00 10,6 10,1 - - - - - 0,0
21.06.2017 06:00:00 9,7 9,3 - - - - - 0,0
21.06.2017 05:00:00 9,5 9,1 - - - - - 0,0
21.06.2017 04:00:00 9,2 8,8 - - - - - 0,0
21.06.2017 03:00:00 9,5 9,0 - - - - - 0,0
21.06.2017 02:00:00 9,5 8,9 - - - - - 0,0
21.06.2017 01:00:00 10,0 9,0 - - - - - 0,0
21.06.2017 00:00:00 10,3 9,1 - - - - - 0,0
20.06.2017 23:00:00 10,6 8,5 - - - - - 0,0
20.06.2017 22:00:00 12,7 8,2 - - - - - 0,0
20.06.2017 21:00:00 14,0 7,8 - - - - - 0,0
20.06.2017 20:00:00 15,6 7,6 - - - - - 0,0
20.06.2017 19:00:00 15,7 7,4 - - - - - 0,0
20.06.2017 18:00:00 17,0 8,6 - - - - - 0,0
20.06.2017 17:00:00 17,7 9,3 - - - - - 0,0
20.06.2017 16:00:00 17,5 7,4 - - - - - 0,0
20.06.2017 15:00:00 16,9 8,7 - - - - - 0,0
20.06.2017 14:00:00 15,6 7,0 - - - - - 0,0
20.06.2017 13:00:00 15,4 7,9 - - - - - 0,0
20.06.2017 12:00:00 14,6 6,9 - - - - - 0,0
20.06.2017 11:00:00 13,5 7,0 - - - - - 0,0
20.06.2017 10:00:00 12,2 7,2 12,2 - - N 3,3 0,0
20.06.2017 09:00:00 11,2 7,3 - - - - - 0,0
20.06.2017 08:00:00 10,7 6,3 - - - - - 0,0
20.06.2017 07:00:00 10,2 6,1 - - - - - 0,0
20.06.2017 06:00:00 9,3 5,4 - - - - - 0,0
20.06.2017 05:00:00 7,9 5,8 - - - - - 0,0
20.06.2017 04:00:00 7,8 6,4 - - - - - 0,0
20.06.2017 03:00:00 6,6 5,7 - - - - - 0,0
20.06.2017 02:00:00 6,4 5,5 - - - - - 0,0
20.06.2017 01:00:00 7,2 6,1 - - - - - 0,0
20.06.2017 00:00:00 7,6 6,3 - - - - - 0,0
19.06.2017 23:00:00 9,4 5,4 - - - - - 0,0
19.06.2017 22:00:00 11,5 6,9 - - - - - 0,0
19.06.2017 21:00:00 13,8 7,3 - - - - - 0,0
19.06.2017 20:00:00 14,2 8,0 - - - - - 0,0
19.06.2017 19:00:00 16,6 9,1 - - - - - 0,0
19.06.2017 18:00:00 17,0 9,3 - - - - - 0,0
19.06.2017 17:00:00 15,9 9,4 - - - - - 0,0
19.06.2017 16:00:00 15,3 9,3 - - - - - 0,0
19.06.2017 15:00:00 14,8 10,8 - - - - - 0,0
19.06.2017 14:00:00 14,1 11,7 - - - - - 0,0
19.06.2017 13:00:00 14,0 11,2 - - - - - 0,0
19.06.2017 12:00:00 12,8 11,5 - - - - - 0,2
19.06.2017 11:00:00 11,0 10,9 - - - - - 2,8
19.06.2017 10:00:00 10,9 10,4 12,4 37 20 N 70 0,6
19.06.2017 09:00:00 11,6 11,6 - - - - - 1,2
19.06.2017 08:00:00 11,0 10,8 - - - - - 0,6
19.06.2017 07:00:00 11,1 10,7 - - - - - 0,4
19.06.2017 06:00:00 11,4 10,4 - - - - - 0,0
19.06.2017 05:00:00 11,1 10,2 - - - - - 0,0
19.06.2017 04:00:00 11,1 10,1 - - - - - 0,0
19.06.2017 03:00:00 11,3 10,3 - - - - - 0,0
19.06.2017 02:00:00 11,2 10,1 - - - - - 0,0
19.06.2017 01:00:00 11,1 10,0 - - - - - 0,0
19.06.2017 00:00:00 10,6 9,3 - - - - - 0,0
18.06.2017 23:00:00 11,7 9,6 - - - - - 0,0
18.06.2017 22:00:00 12,4 9,5 - - - - - 0,0
18.06.2017 21:00:00 13,3 9,9 - - - - - 0,0
18.06.2017 20:00:00 14,5 10,4 - - - - - 0,0
18.06.2017 19:00:00 16,0 11,2 - - - - - 0,0
18.06.2017 18:00:00 15,6 11,0 - - - - - 0,0
18.06.2017 17:00:00 16,0 11,2 - - - - - 0,0
18.06.2017 16:00:00 15,6 10,2 - - - - - 0,0
18.06.2017 15:00:00 16,0 9,7 - - - - - 0,0
18.06.2017 14:00:00 17,5 10,3 - - - - - 0,0
18.06.2017 13:00:00 16,7 10,6 - - - - - 0,0
18.06.2017 12:00:00 16,3 9,6 - - - - - 0,0
18.06.2017 11:00:00 16,9 11,5 - - - - - 0,0
18.06.2017 10:00:00 16,1 12,2 18,3 76 41 N 0,2 0,0
18.06.2017 09:00:00 17,2 12,6 - - - - - 0,0
18.06.2017 08:00:00 15,2 12,7 - - - - - 0,0
18.06.2017 07:00:00 14,3 12,4 - - - - - 0,0
18.06.2017 06:00:00 13,7 12,5 - - - - - 0,0
18.06.2017 05:00:00 12,8 11,9 - - - - - 0,0
18.06.2017 04:00:00 12,3 11,3 - - - - - 0,0
18.06.2017 03:00:00 13,7 11,9 - - - - - 0,0
18.06.2017 02:00:00 14,0 11,9 - - - - - 0,0
18.06.2017 01:00:00 14,1 12,1 - - - - - 0,0
18.06.2017 00:00:00 14,0 12,3 - - - - - 0,0
17.06.2017 23:00:00 14,2 12,6 - - - - - 0,0
17.06.2017 22:00:00 14,3 12,6 - - - - 10 0,0
17.06.2017 21:00:00 15,2 12,7 - - - - - 0,0
17.06.2017 20:00:00 16,7 13,0 - - - - - 0,0
17.06.2017 19:00:00 16,5 14,3 - - - - - 0,0
17.06.2017 18:00:00 18,7 13,6 - - - - - 0,0
17.06.2017 17:00:00 18,7 13,4 - - - - - 0,0
17.06.2017 16:00:00 19,3 14,9 - - - - - 0,0
17.06.2017 15:00:00 20,6 14,0 - - - - - 0,0
17.06.2017 14:00:00 19,8 15,1 - - - - - 0,0
17.06.2017 13:00:00 19,6 14,2 - - - - - 0,0
17.06.2017 12:00:00 19,7 14,4 - - - - - 0,0
17.06.2017 11:00:00 17,9 13,9 - - - - - 0,0
17.06.2017 10:00:00 20,0 14,6 20,1 50 27 N 1,6 0,0
17.06.2017 09:00:00 16,9 13,5 - - - - - 0,0
17.06.2017 08:00:00 15,8 12,7 - - - - - 0,0
17.06.2017 07:00:00 14,7 12,2 - - - - - 0,0
17.06.2017 06:00:00 14,5 12,2 - - - - - 0,0
17.06.2017 05:00:00 13,9 11,8 - - - - - 0,0
17.06.2017 04:00:00 14,0 11,6 - - - - - 0,0
17.06.2017 03:00:00 14,4 12,0 - - - - - 0,0
17.06.2017 02:00:00 14,2 12,2 - - - - - 0,0
17.06.2017 01:00:00 14,2 11,8 - - - - - 0,0
17.06.2017 00:00:00 14,3 11,6 - - - - - 0,0
16.06.2017 23:00:00 15,1 11,9 - - - - - 0,0
16.06.2017 22:00:00 14,9 11,8 - - - - - 0,0
16.06.2017 21:00:00 15,6 12,0 - - - - - 0,0

tt = Temperatura
td = dewpoint
tt 5cm = Temperatura 5cm
ff = velocità del vento
dd = direzione del vento
vv = visibility
rr = precipitazioni

Stazioni seguenti

WeatherPro
AMSI
MeteoEarth